Vorticity
6 6 4 5 5 6 5 6 6 6 6 6 8 7 5 5 4 6 9 8 11 10 8 13 14 8 8 9 8 9 8 6 8 10 9 9 8 7 6 6 5 5 4 4 4 5 6 6 7 9 10 10 12 13 12 12 13 12 12 13 15 18 21 23 22 18 16 15 14 13 13 14 16 15 14 12 9 8 5 4 5 5 5 6 6 5
9 2 2 5 4 5 4 4 5 5 7 6 6 8 5 4 5 6 9 9 10 12 10 13 16 12 7 9 10 7 9 9 8 10 11 9 8 7 7 7 5 5 4 4 4 4 5 7 7 8 10 11 13 12 11 13 14 12 12 13 15 17 20 22 21 17 14 15 14 14 13 13 15 16 15 13 9 7 6 5 5 5 6 7 8 8
5 -0 3 6 4 5 4 3 4 4 7 5 5 8 5 4 6 6 8 10 9 11 12 11 15 17 9 6 10 8 9 10 8 11 12 7 7 7 7 6 4 4 5 4 4 3 5 7 6 8 10 12 13 11 11 15 14 12 11 13 16 18 20 21 19 16 14 14 14 13 13 13 13 14 14 13 13 10 8 7 6 6 7 7 9 9
2 2 5 6 5 5 4 4 5 4 6 5 4 6 6 5 6 6 7 10 9 8 13 12 11 17 13 6 9 9 7 10 10 9 7 5 7 9 7 6 4 4 5 4 4 3 4 7 7 8 10 12 12 9 11 15 14 13 12 14 17 18 20 21 18 15 13 14 15 13 13 13 13 12 11 11 11 12 10 9 8 8 8 9 8 8
4 4 4 5 5 5 5 6 6 5 5 5 5 5 6 6 4 6 6 8 11 8 9 14 10 12 15 8 6 9 7 7 9 6 4 7 10 9 8 6 5 5 4 4 4 3 4 6 7 8 10 13 11 8 12 15 13 12 14 15 17 18 20 21 17 14 13 13 14 14 13 13 13 12 11 10 8 6 6 6 6 7 7 7 7 7
4 4 4 4 4 5 6 7 6 6 5 5 6 6 6 6 3 6 7 6 11 11 7 10 9 8 14 12 7 8 7 6 8 7 7 12 11 8 7 6 6 5 4 4 4 4 4 6 7 8 11 14 10 9 13 14 11 11 14 16 17 18 20 20 17 14 13 13 12 13 15 14 14 14 13 13 11 6 5 5 5 7 7 7 7 8
3 4 4 3 5 6 6 6 6 6 6 5 7 6 6 6 4 5 8 6 7 12 10 8 9 7 6 9 9 7 8 8 9 9 10 12 10 8 7 7 7 5 5 5 4 5 5 5 6 7 11 14 10 10 14 13 11 10 13 16 17 19 20 19 18 15 13 12 11 11 13 14 14 15 15 14 14 12 10 9 7 7 8 9 9 8
4 4 4 3 5 5 4 5 6 7 7 6 7 8 6 5 5 4 6 8 6 8 11 9 12 12 3 5 10 8 8 9 9 9 9 10 8 7 9 9 7 6 5 5 4 5 5 5 5 6 11 12 8 10 13 12 11 12 14 16 17 18 19 19 19 16 13 11 12 12 11 13 14 15 17 16 16 16 14 13 10 8 7 6 7 6
4 4 4 3 4 3 3 4 5 6 6 5 7 7 6 5 5 4 5 9 6 6 11 12 13 14 7 6 10 9 10 10 9 9 8 7 7 8 10 10 9 8 6 5 5 6 6 5 4 7 11 9 7 11 12 11 11 13 14 16 17 18 19 19 20 17 13 10 12 13 12 13 13 14 15 16 16 16 15 15 12 10 8 7 7 7
3 3 3 3 3 3 4 5 5 6 5 5 8 7 6 6 4 5 7 7 6 8 13 12 9 11 9 8 10 9 10 11 8 8 6 5 8 10 10 10 10 9 6 6 6 6 6 5 5 9 10 7 7 10 11 10 11 13 15 16 16 18 19 19 20 18 14 10 10 14 14 12 12 12 13 13 14 14 14 14 12 11 10 9 10 8
3 3 4 2 3 4 5 5 5 6 6 5 6 6 5 5 5 7 8 7 9 10 12 9 7 9 8 10 12 10 10 11 8 6 5 6 9 9 9 10 10 9 7 6 6 7 6 6 7 9 8 6 7 9 9 10 11 12 14 16 15 18 19 19 19 17 14 11 9 12 14 14 12 11 12 12 13 13 13 13 12 12 11 10 11 11
4 3 4 3 4 4 4 5 3 4 6 5 5 5 4 6 8 8 8 11 11 7 8 8 7 10 8 9 12 10 10 10 7 6 6 7 9 8 8 10 10 9 7 5 6 6 6 7 9 9 7 7 7 9 9 10 10 11 13 15 16 18 19 19 19 16 12 12 10 12 15 15 14 12 12 12 13 14 14 13 13 12 13 11 10 9
5 3 3 3 3 3 4 4 3 4 6 4 4 5 4 5 6 6 7 12 9 1 2 6 8 11 11 9 11 10 9 9 7 7 8 7 8 8 8 10 10 9 8 6 5 6 6 7 9 9 8 7 8 8 10 10 11 12 13 14 15 18 19 19 21 15 11 12 11 12 15 16 14 13 13 13 13 15 15 14 14 12 11 9 7 6
5 4 3 3 2 2 4 4 4 4 5 5 4 5 5 4 6 7 7 10 8 1 2 7 7 10 12 10 10 10 8 9 8 7 7 6 7 9 8 9 10 9 8 7 6 6 7 7 7 9 8 8 8 9 10 11 11 12 13 14 15 17 19 19 21 17 11 11 11 12 14 15 15 13 13 13 13 15 15 13 12 10 8 6 5 7
4 4 2 2 3 2 3 5 5 4 5 5 5 5 5 5 6 8 6 8 7 1 4 12 8 5 10 9 8 10 9 8 9 8 7 6 7 9 9 9 10 9 9 8 6 7 7 7 7 8 8 8 8 8 10 10 11 12 12 14 16 17 19 20 20 19 14 12 12 11 13 14 15 13 12 13 13 14 14 12 10 7 6 5 6 7
2 3 3 2 3 3 3 6 5 3 5 5 4 4 4 4 5 6 5 4 6 7 9 13 8 5 10 10 8 10 8 7 9 8 7 7 6 7 8 9 10 9 11 9 6 7 7 6 8 8 7 8 8 9 10 10 11 12 12 14 16 17 19 19 20 19 16 15 14 10 10 14 15 14 12 12 13 13 13 11 8 6 4 5 7 7
2 4 4 2 3 3 2 5 5 3 5 5 3 4 5 5 5 5 4 3 9 14 8 5 7 7 10 10 8 8 7 6 8 7 8 9 7 6 5 8 9 9 11 11 7 7 8 7 8 7 7 7 8 9 10 10 10 11 12 15 17 18 18 19 20 19 17 21 18 9 9 14 15 14 12 11 11 12 12 10 7 5 4 5 6 6
3 4 5 3 3 3 2 4 6 4 4 5 4 5 5 5 5 5 6 5 7 10 6 3 6 7 9 11 8 7 6 5 6 7 10 10 8 6 5 6 9 8 9 11 9 7 8 8 7 6 7 7 8 10 11 10 9 9 13 15 17 18 18 19 21 19 18 23 20 9 8 14 15 12 10 10 11 11 11 10 7 5 4 5 6 6
4 3 5 5 4 4 3 4 5 4 4 5 4 5 5 5 7 7 7 7 7 8 8 7 6 5 10 10 6 7 6 5 7 9 10 11 9 6 5 6 8 8 7 9 10 8 8 9 7 6 7 7 7 10 11 10 9 9 13 16 17 18 18 19 22 21 19 22 20 10 9 14 14 10 8 8 10 11 11 9 7 5 4 4 5 7
4 4 4 5 5 4 3 4 5 4 4 5 4 5 5 5 6 6 5 5 7 7 8 9 7 6 9 10 7 7 5 4 7 8 10 11 9 6 5 7 8 8 6 7 10 10 8 8 7 7 7 6 7 10 11 10 10 10 13 16 17 19 20 20 23 22 20 23 22 13 11 14 11 8 8 9 9 10 10 10 7 5 5 5 5 7
4 4 4 5 5 4 3 5 5 4 4 5 4 5 5 4 4 6 6 5 7 8 7 7 6 6 8 10 8 7 5 5 7 8 9 10 8 7 6 5 7 7 6 7 9 11 10 7 7 8 6 6 8 10 10 10 10 11 14 15 17 19 20 21 24 23 21 24 22 13 11 13 10 7 7 8 10 10 10 9 8 6 5 5 6 7
3 4 4 5 5 4 4 5 5 4 4 4 5 5 5 5 3 5 9 7 5 7 5 4 5 4 6 8 7 6 5 5 7 8 9 9 9 9 6 4 5 7 7 8 8 10 11 7 7 7 5 6 9 9 9 9 10 12 14 15 17 19 20 22 24 24 24 24 18 12 12 11 7 6 7 8 9 10 10 9 8 8 6 5 6 7
3 5 5 4 5 5 4 5 5 4 4 5 5 5 5 4 3 5 8 6 4 3 2 5 8 5 4 6 6 5 5 4 6 8 8 8 9 9 6 4 5 7 8 9 9 9 9 8 7 5 3 7 10 8 9 9 10 12 14 15 17 18 20 22 24 25 25 22 16 12 12 9 6 6 7 9 10 10 10 10 9 8 7 6 7 7
4 5 6 5 5 5 4 4 5 4 5 6 5 4 4 3 4 5 5 5 5 3 1 6 10 7 5 6 5 4 4 3 4 6 7 8 9 8 7 5 5 7 8 9 10 8 8 9 8 4 4 8 9 7 9 10 10 11 14 16 17 19 21 22 23 26 26 21 16 13 11 7 5 6 7 9 10 11 10 10 10 9 7 7 6 7
4 4 5 5 5 5 4 4 5 5 5 5 4 5 5 4 4 5 4 5 6 5 4 6 8 8 7 7 7 5 5 3 2 4 6 8 9 9 8 6 5 7 8 9 10 8 9 10 7 4 5 8 8 7 10 11 10 11 13 16 18 19 21 22 23 26 26 21 16 12 9 6 4 6 8 10 10 11 11 10 10 9 7 7 7 7
4 4 4 4 4 4 3 3 5 5 5 5 5 6 6 4 4 4 5 6 6 8 10 3 0 6 8 8 8 6 5 4 2 3 5 7 9 9 9 8 6 6 7 8 8 8 10 10 6 5 7 7 6 8 10 11 10 11 13 16 18 19 21 22 23 25 25 21 16 11 7 4 5 7 8 10 11 11 11 10 11 9 7 7 7 7
5 4 4 3 4 5 5 4 5 5 6 5 5 7 6 4 3 3 5 7 4 6 10 3 -1 5 8 7 6 6 7 5 2 3 3 5 8 9 10 9 6 5 6 7 8 8 9 9 7 7 6 6 7 8 10 11 10 11 14 16 17 19 21 22 24 25 24 20 14 9 5 4 5 8 9 10 11 11 11 11 10 9 7 8 7 7
5 6 5 4 4 5 6 4 5 6 6 5 5 7 6 4 4 4 4 6 5 3 6 7 5 3 4 7 6 4 6 4 2 3 3 3 6 7 10 11 8 6 5 6 8 8 8 8 9 7 5 5 8 9 10 10 9 11 14 17 18 19 20 22 24 25 24 19 11 6 5 5 6 8 9 10 11 10 11 11 11 10 8 7 8 8
5 6 7 6 3 4 6 5 5 6 7 6 5 6 6 4 5 4 2 5 7 3 2 6 8 4 3 7 7 4 4 4 2 3 2 2 4 5 8 10 10 7 5 6 7 8 8 9 9 5 3 6 9 9 9 9 9 11 14 16 19 20 21 22 23 25 23 16 9 5 5 6 7 9 9 10 11 11 12 11 10 10 8 7 8 9
5 5 6 7 4 4 6 5 4 6 7 6 5 6 6 4 5 6 2 3 6 5 2 4 7 7 4 5 8 6 4 3 3 3 2 2 3 5 6 7 9 9 7 6 6 7 8 9 8 4 4 8 10 9 9 9 9 11 13 16 18 20 22 22 22 24 21 14 7 5 6 7 8 9 9 10 11 10 11 12 11 10 8 7 8 9
5 5 4 6 6 5 5 5 5 7 8 6 4 5 6 5 6 6 3 4 5 5 4 3 5 8 6 5 8 8 4 4 4 4 3 2 1 4 6 7 8 9 8 7 5 6 8 8 7 5 5 8 9 8 9 9 9 11 13 15 18 20 23 23 21 22 19 12 7 6 7 7 8 9 9 10 11 11 11 12 11 10 8 8 9 10
5 4 3 5 6 5 4 4 6 7 7 6 5 6 6 6 6 6 6 6 4 3 4 4 5 7 7 5 8 9 6 4 4 3 2 1 0 2 5 7 10 10 9 7 5 6 8 7 6 6 5 8 9 9 9 10 10 11 12 14 17 20 23 23 22 21 17 11 7 6 7 7 8 9 10 10 11 11 11 12 11 10 8 8 10 10
5 4 3 4 6 5 5 5 8 7 5 6 8 7 6 5 5 8 9 6 3 3 4 4 5 8 7 5 6 9 7 4 4 3 1 -0 -1 1 4 9 13 13 9 7 7 6 6 7 7 6 6 8 10 9 9 10 10 11 11 13 16 20 22 22 21 20 17 12 8 6 7 7 8 9 10 10 11 11 12 12 11 10 8 9 10 10
5 4 3 3 5 6 5 6 8 7 3 6 11 8 5 4 5 9 11 7 2 3 4 6 7 8 7 5 5 7 8 5 4 3 1 -0 -2 0 7 13 16 16 11 8 7 5 5 6 7 6 6 9 10 10 9 10 10 10 10 11 16 20 21 21 21 19 16 12 8 7 7 8 9 10 10 10 11 12 12 12 11 9 8 9 10 11
6 4 3 3 5 5 5 6 8 7 5 7 10 6 4 5 5 7 12 7 1 2 5 5 4 5 7 7 5 6 8 7 5 3 2 -0 -2 3 12 15 15 16 13 8 6 5 5 6 6 7 7 9 10 10 10 9 10 10 9 10 15 20 21 21 20 19 16 13 9 8 8 9 10 11 11 11 12 12 13 13 11 9 9 9 10 11
6 5 3 4 4 3 5 8 9 8 7 7 7 4 5 6 5 6 9 6 -0 2 6 3 3 7 10 8 5 4 8 8 6 4 3 -1 0 8 14 13 12 15 14 9 7 5 4 5 6 7 7 8 10 10 9 10 10 10 9 9 13 19 21 21 20 18 16 13 10 9 9 10 11 11 11 11 12 13 13 13 10 8 9 11 10 11
6 5 4 4 4 3 4 8 8 6 5 6 7 5 6 7 6 4 6 6 3 4 5 4 6 9 9 7 5 4 7 9 6 5 3 -0 4 12 14 11 11 14 14 11 8 5 4 4 6 8 7 9 11 10 9 9 10 10 9 9 13 17 20 20 20 18 15 12 11 10 9 11 12 11 11 11 12 13 13 12 10 9 10 11 11 10
6 5 4 4 3 2 3 7 10 8 5 6 7 7 6 6 6 5 6 7 5 4 5 6 7 8 8 8 6 4 5 8 8 5 1 1 7 14 12 9 10 13 14 12 8 5 4 3 5 7 8 9 11 10 8 9 9 10 9 9 12 16 19 20 19 17 15 12 11 11 11 11 12 12 12 11 12 13 13 11 9 10 10 10 11 10
6 5 5 4 3 2 3 6 11 9 6 6 8 7 6 5 5 6 6 6 5 5 6 7 7 9 9 8 6 4 4 7 8 5 1 3 9 12 10 8 9 12 14 13 8 5 4 3 4 6 7 9 10 9 8 9 9 9 9 10 12 15 18 19 19 16 14 13 12 11 11 11 11 12 12 12 12 12 12 11 10 10 10 9 10 11
5 5 5 4 2 4 4 6 10 8 5 6 8 7 6 5 5 6 6 6 6 7 8 9 9 10 10 7 5 5 4 4 6 4 1 4 9 10 10 8 8 11 15 14 9 5 3 2 3 6 7 9 10 9 9 10 9 8 9 10 11 14 17 19 19 16 14 13 13 12 11 11 11 12 12 12 12 12 12 12 11 10 10 9 10 11
5 5 5 4 3 5 4 5 9 8 5 7 8 7 6 5 5 6 6 6 7 7 9 11 10 10 9 7 5 5 4 4 6 3 2 6 8 8 8 8 7 10 14 13 10 6 4 2 2 5 7 7 9 11 10 10 10 9 9 10 10 13 16 18 18 17 14 13 13 12 12 11 10 12 12 12 12 12 12 12 11 10 9 9 10 10
6 6 5 4 4 5 5 6 7 7 7 8 9 8 6 4 4 5 6 7 7 8 10 9 6 6 9 7 4 4 4 5 6 3 4 6 6 4 6 7 6 9 12 12 10 7 4 3 2 4 7 7 9 11 10 9 10 10 10 11 10 11 15 17 17 17 14 14 14 13 13 12 10 11 13 12 12 12 13 12 11 10 9 9 10 10
6 5 5 4 4 5 5 5 5 6 7 10 11 9 6 5 5 5 6 6 6 6 7 6 5 7 10 8 4 4 3 5 6 4 5 6 2 1 5 6 5 8 11 11 10 8 5 3 2 3 6 8 10 12 11 9 11 10 10 11 10 11 15 17 17 16 15 14 14 14 13 12 11 12 13 13 12 12 12 12 11 10 10 9 9 10
6 5 4 5 5 4 4 6 6 6 5 8 12 11 7 5 6 7 6 7 8 7 6 6 7 9 10 7 5 4 3 4 5 4 6 7 1 -2 4 7 5 6 10 11 10 9 6 3 1 3 6 8 10 12 11 10 10 11 11 11 10 11 13 16 17 16 15 14 14 13 12 11 12 14 13 12 12 12 12 11 10 10 10 9 9 9
8 6 5 5 4 4 6 7 6 6 7 10 12 10 5 4 6 7 8 8 9 8 7 8 9 9 9 7 5 4 3 4 6 6 6 8 4 -1 3 7 5 5 9 11 10 9 7 3 1 3 6 8 11 13 12 10 11 11 11 11 11 11 12 15 17 16 15 15 14 13 13 12 13 14 14 11 11 11 11 11 9 9 10 10 9 8
10 6 5 4 3 5 9 6 3 6 10 12 10 6 5 5 4 5 7 8 9 9 9 10 10 9 8 7 4 4 3 3 5 7 7 7 6 3 3 6 5 4 7 10 10 9 8 4 1 3 6 8 12 13 11 11 11 11 11 11 10 11 12 14 17 17 15 15 14 13 12 12 13 14 14 12 11 10 11 10 9 8 8 8 8 8
11 5 4 4 4 6 7 5 3 5 8 9 8 6 6 6 6 6 8 9 9 9 9 9 8 8 9 7 4 4 4 3 4 7 8 7 7 5 4 5 5 4 6 9 9 8 8 4 2 3 5 8 13 13 11 11 12 11 11 11 10 10 12 14 16 17 15 15 14 13 12 12 13 13 14 13 10 9 10 11 10 8 7 7 7 6
10 7 7 6 4 5 6 5 5 6 7 8 8 7 7 7 7 7 8 8 8 7 7 7 8 9 9 6 4 4 3 3 4 6 8 8 7 5 4 4 4 5 6 8 9 8 7 5 3 3 4 8 13 13 11 12 13 11 10 11 10 10 11 13 16 17 15 15 14 13 12 11 11 13 14 14 11 8 8 9 11 10 8 7 6 5
7 9 11 7 4 5 5 4 4 6 8 7 7 7 8 7 6 6 6 6 7 8 8 8 9 11 9 6 4 4 3 3 4 6 8 9 9 7 5 4 4 6 7 7 7 8 7 5 4 3 3 8 12 12 12 14 14 12 11 11 10 9 10 13 15 16 15 14 14 13 11 11 11 12 13 14 14 12 7 6 7 9 9 8 6 5
7 10 9 4 2 4 4 4 3 5 6 6 6 7 7 7 6 5 6 8 9 9 9 8 9 10 9 6 4 4 3 3 4 5 7 9 10 9 6 4 3 6 8 6 7 8 7 6 5 3 3 7 11 11 12 15 14 12 11 10 10 9 10 12 15 16 14 14 14 13 11 10 10 11 12 13 14 15 13 9 6 5 6 7 7 6
9 11 8 5 3 3 4 4 4 6 7 6 5 5 6 7 6 4 7 9 9 8 9 10 10 10 9 6 4 3 3 3 3 5 6 8 10 9 7 5 4 7 8 6 6 8 8 6 6 3 2 6 10 10 13 16 15 12 11 11 10 9 9 12 15 16 14 14 14 13 11 10 10 10 11 12 12 13 14 14 11 7 5 4 6 8
Height
5845 5849 5848 5845 5843 5840 5838 5836 5834 5832 5830 5828 5825 5822 5820 5817 5814 5811 5808 5805 5802 5799 5796 5792 5789 5785 5782 5778 5774 5770 5766 5761 5757 5753 5748 5743 5739 5735 5731 5726 5721 5715 5709 5703 5697 5690 5683 5676 5668 5660 5652 5642 5633 5625 5616 5607 5598 5589 5581 5572 5564 5556 5549 5542 5537 5532 5528 5523 5519 5514 5510 5506 5502 5499 5496 5493 5490 5487 5484 5482 5479 5477 5474 5471 5469 5466
5850 5852 5849 5845 5843 5841 5839 5836 5834 5832 5830 5828 5825 5822 5819 5816 5813 5810 5807 5804 5801 5798 5795 5791 5788 5784 5780 5776 5772 5768 5764 5760 5755 5751 5747 5742 5737 5733 5728 5723 5718 5712 5706 5700 5694 5687 5679 5672 5664 5656 5648 5639 5630 5622 5612 5602 5593 5585 5576 5568 5560 5552 5545 5538 5533 5528 5523 5518 5514 5510 5506 5502 5498 5495 5492 5489 5487 5484 5481 5479 5476 5473 5471 5469 5466 5463
5855 5852 5847 5845 5843 5841 5839 5837 5834 5832 5830 5828 5825 5822 5819 5816 5813 5809 5806 5803 5800 5796 5793 5790 5787 5784 5779 5774 5770 5766 5762 5758 5753 5748 5744 5739 5735 5731 5726 5721 5715 5709 5703 5697 5690 5683 5676 5668 5660 5652 5643 5635 5626 5618 5608 5598 5590 5581 5573 5564 5555 5547 5540 5534 5529 5524 5519 5515 5510 5506 5502 5498 5494 5491 5488 5485 5483 5480 5478 5475 5472 5470 5467 5465 5462 5460
5855 5850 5847 5846 5844 5841 5840 5837 5835 5833 5830 5828 5824 5821 5818 5815 5812 5809 5806 5803 5799 5795 5792 5789 5786 5783 5778 5772 5768 5764 5760 5756 5751 5745 5741 5736 5732 5728 5723 5718 5712 5706 5700 5694 5687 5679 5672 5665 5657 5648 5640 5631 5622 5613 5604 5595 5586 5577 5569 5560 5552 5544 5537 5531 5525 5520 5516 5512 5507 5503 5498 5494 5491 5487 5485 5482 5479 5476 5474 5472 5469 5466 5463 5461 5458 5456
5853 5848 5847 5846 5844 5842 5839 5837 5835 5833 5830 5827 5824 5821 5817 5814 5811 5808 5805 5802 5799 5795 5791 5788 5784 5780 5775 5770 5766 5762 5757 5752 5747 5741 5737 5734 5730 5725 5721 5715 5709 5703 5697 5691 5684 5677 5669 5662 5654 5645 5636 5627 5619 5609 5600 5591 5582 5574 5565 5556 5548 5540 5533 5527 5522 5517 5513 5509 5505 5501 5497 5493 5489 5485 5482 5479 5476 5473 5470 5468 5465 5462 5459 5456 5454 5451
5851 5848 5847 5846 5844 5841 5839 5838 5836 5833 5830 5827 5823 5820 5817 5813 5810 5807 5804 5801 5798 5794 5789 5785 5780 5775 5772 5768 5764 5759 5754 5748 5743 5739 5736 5733 5728 5722 5717 5711 5706 5699 5693 5687 5680 5673 5666 5658 5650 5641 5633 5624 5615 5606 5596 5587 5579 5570 5562 5553 5545 5537 5530 5524 5518 5514 5509 5505 5501 5497 5494 5490 5486 5482 5478 5475 5471 5468 5465 5462 5460 5457 5454 5451 5449 5446
5850 5848 5847 5845 5842 5839 5839 5838 5836 5833 5829 5826 5823 5820 5816 5813 5809 5806 5802 5799 5795 5791 5786 5781 5776 5771 5769 5766 5761 5756 5750 5746 5743 5740 5735 5731 5725 5719 5713 5708 5702 5696 5690 5683 5677 5669 5662 5654 5646 5638 5629 5621 5612 5602 5593 5584 5575 5567 5558 5550 5542 5534 5527 5521 5515 5510 5506 5501 5497 5493 5489 5485 5482 5478 5475 5471 5467 5464 5460 5457 5455 5452 5449 5447 5444 5442
5850 5849 5846 5843 5841 5840 5840 5838 5834 5832 5828 5825 5822 5819 5815 5812 5808 5804 5801 5797 5792 5788 5783 5779 5774 5770 5766 5762 5758 5753 5749 5746 5743 5739 5733 5728 5722 5716 5711 5706 5699 5693 5687 5680 5673 5665 5658 5649 5641 5633 5625 5617 5608 5598 5589 5581 5572 5564 5555 5547 5538 5531 5524 5518 5512 5507 5502 5498 5493 5489 5485 5481 5478 5474 5471 5467 5464 5461 5458 5454 5451 5448 5445 5443 5440 5438
5850 5848 5845 5844 5843 5843 5841 5837 5834 5832 5828 5825 5822 5819 5816 5813 5808 5803 5799 5794 5789 5785 5781 5777 5774 5770 5766 5761 5756 5752 5749 5746 5742 5736 5730 5725 5719 5714 5709 5703 5697 5691 5684 5677 5669 5662 5654 5645 5637 5629 5621 5612 5604 5595 5586 5578 5569 5560 5552 5543 5535 5528 5521 5515 5509 5503 5498 5494 5489 5485 5481 5478 5474 5470 5467 5464 5460 5457 5454 5451 5448 5445 5442 5439 5436 5433
5850 5848 5847 5847 5846 5843 5840 5837 5835 5831 5828 5825 5822 5819 5816 5810 5805 5801 5796 5791 5788 5784 5780 5776 5773 5769 5764 5760 5755 5752 5749 5745 5739 5732 5726 5722 5718 5713 5707 5700 5694 5688 5681 5674 5667 5659 5651 5643 5635 5626 5617 5609 5601 5592 5583 5575 5566 5558 5549 5541 5533 5526 5519 5512 5506 5501 5495 5491 5486 5482 5478 5474 5471 5467 5463 5460 5457 5453 5450 5447 5444 5441 5438 5435 5431 5428
5850 5850 5850 5848 5845 5842 5839 5837 5835 5831 5828 5825 5821 5818 5814 5808 5804 5800 5795 5790 5787 5782 5778 5774 5771 5767 5763 5759 5755 5751 5747 5741 5735 5730 5725 5721 5716 5710 5704 5697 5691 5685 5679 5672 5664 5657 5649 5641 5632 5624 5615 5607 5598 5590 5581 5572 5564 5555 5547 5539 5531 5523 5516 5510 5504 5498 5493 5488 5483 5479 5475 5471 5467 5463 5460 5456 5453 5450 5446 5443 5440 5437 5434 5431 5427 5424
5852 5852 5850 5847 5844 5842 5839 5837 5835 5832 5828 5824 5820 5817 5812 5807 5802 5798 5793 5788 5785 5781 5779 5775 5771 5767 5763 5759 5756 5751 5745 5739 5733 5729 5724 5719 5714 5708 5701 5695 5688 5682 5676 5669 5662 5655 5647 5639 5630 5622 5613 5605 5596 5588 5579 5570 5561 5553 5545 5537 5529 5521 5514 5508 5502 5496 5490 5485 5480 5476 5472 5467 5463 5459 5456 5452 5449 5446 5442 5439 5436 5433 5430 5427 5423 5419
5854 5853 5850 5847 5845 5842 5840 5838 5835 5830 5827 5824 5819 5814 5808 5803 5799 5796 5792 5789 5785 5781 5778 5775 5771 5767 5764 5759 5754 5749 5744 5737 5732 5729 5723 5717 5711 5704 5697 5691 5685 5679 5672 5665 5658 5652 5644 5635 5627 5619 5611 5602 5594 5585 5577 5568 5559 5551 5542 5534 5526 5518 5512 5505 5499 5493 5488 5483 5478 5473 5468 5464 5460 5456 5452 5448 5445 5441 5438 5435 5432 5429 5426 5422 5418 5414
5854 5852 5850 5847 5845 5842 5840 5836 5832 5828 5825 5821 5815 5810 5804 5800 5798 5796 5794 5792 5786 5781 5778 5774 5771 5767 5763 5758 5753 5748 5741 5736 5732 5728 5723 5716 5708 5701 5695 5688 5682 5676 5669 5663 5655 5648 5640 5632 5624 5616 5609 5600 5592 5584 5575 5566 5558 5549 5540 5532 5524 5516 5509 5502 5497 5491 5485 5480 5475 5470 5465 5461 5457 5453 5449 5445 5441 5438 5434 5430 5427 5423 5420 5417 5413 5409
5854 5852 5849 5847 5844 5841 5838 5834 5830 5827 5824 5818 5813 5808 5803 5799 5797 5795 5793 5790 5786 5781 5777 5773 5769 5764 5760 5756 5751 5745 5739 5736 5732 5726 5720 5713 5706 5700 5694 5687 5680 5674 5667 5660 5653 5645 5638 5630 5622 5614 5606 5598 5590 5581 5573 5564 5555 5546 5538 5529 5521 5513 5506 5500 5494 5488 5482 5477 5472 5467 5462 5458 5453 5449 5445 5441 5437 5434 5430 5426 5423 5419 5415 5411 5407 5402
5853 5851 5848 5846 5843 5840 5836 5833 5830 5827 5822 5817 5813 5809 5804 5802 5799 5796 5792 5789 5785 5780 5774 5770 5767 5763 5759 5755 5749 5744 5740 5735 5728 5721 5715 5709 5704 5699 5692 5685 5678 5671 5664 5657 5650 5643 5635 5628 5620 5613 5605 5596 5587 5579 5570 5561 5552 5544 5535 5527 5518 5510 5503 5496 5490 5485 5479 5474 5469 5464 5459 5455 5450 5446 5443 5438 5434 5430 5426 5422 5418 5414 5410 5406 5402 5397
5853 5851 5848 5846 5843 5839 5835 5833 5829 5826 5821 5817 5813 5809 5805 5803 5800 5796 5792 5787 5782 5777 5772 5770 5767 5763 5759 5753 5748 5743 5739 5732 5725 5719 5713 5707 5702 5697 5690 5683 5677 5669 5662 5655 5647 5640 5633 5626 5618 5610 5602 5594 5585 5576 5567 5558 5549 5541 5533 5524 5516 5508 5500 5493 5487 5482 5476 5471 5466 5461 5456 5452 5448 5443 5440 5435 5431 5427 5422 5418 5414 5410 5406 5402 5397 5391
5853 5851 5848 5846 5842 5838 5835 5832 5828 5825 5821 5817 5813 5809 5807 5804 5800 5795 5791 5786 5782 5777 5773 5769 5765 5761 5756 5751 5746 5741 5736 5730 5725 5719 5712 5706 5700 5693 5687 5681 5674 5667 5659 5652 5645 5638 5630 5623 5615 5607 5599 5591 5582 5573 5564 5555 5547 5539 5530 5522 5513 5505 5498 5491 5484 5478 5473 5468 5463 5458 5454 5449 5445 5441 5436 5432 5428 5424 5419 5415 5410 5406 5401 5397 5391 5386
5853 5851 5848 5845 5841 5838 5835 5831 5828 5824 5820 5817 5813 5810 5807 5802 5797 5792 5787 5783 5779 5776 5774 5769 5764 5759 5753 5748 5744 5738 5733 5728 5724 5717 5711 5704 5697 5689 5683 5677 5670 5662 5655 5649 5643 5636 5628 5621 5613 5605 5597 5589 5580 5571 5562 5554 5545 5537 5529 5520 5511 5503 5495 5488 5481 5475 5470 5465 5460 5455 5451 5447 5442 5438 5434 5429 5425 5420 5416 5412 5407 5402 5397 5392 5386 5380
5853 5850 5848 5844 5841 5837 5834 5830 5826 5823 5820 5816 5813 5809 5805 5799 5794 5790 5785 5780 5776 5773 5772 5768 5763 5757 5751 5746 5741 5735 5731 5726 5721 5715 5708 5701 5693 5686 5680 5673 5666 5659 5652 5646 5640 5633 5627 5619 5612 5604 5595 5587 5579 5570 5561 5553 5544 5536 5527 5519 5510 5501 5493 5485 5478 5472 5467 5462 5458 5453 5449 5444 5440 5435 5431 5426 5422 5417 5412 5408 5403 5398 5392 5387 5381 5374
5853 5850 5847 5844 5840 5837 5833 5830 5826 5823 5819 5816 5812 5808 5804 5799 5794 5790 5785 5779 5775 5771 5768 5764 5760 5755 5751 5746 5740 5735 5730 5724 5718 5712 5706 5699 5692 5685 5678 5671 5664 5657 5650 5644 5638 5632 5625 5618 5610 5602 5594 5586 5577 5568 5560 5551 5543 5535 5526 5517 5509 5500 5492 5484 5477 5470 5465 5460 5455 5451 5447 5442 5438 5433 5428 5423 5419 5414 5409 5404 5398 5393 5387 5381 5375 5369
5853 5850 5846 5843 5840 5837 5833 5830 5826 5823 5819 5815 5812 5807 5803 5798 5793 5789 5785 5780 5775 5770 5767 5763 5758 5753 5749 5744 5739 5734 5729 5723 5717 5710 5704 5697 5690 5683 5676 5670 5663 5656 5649 5643 5636 5630 5623 5616 5609 5601 5593 5585 5576 5567 5559 5550 5542 5533 5524 5516 5507 5499 5491 5483 5475 5469 5463 5458 5453 5449 5445 5440 5436 5431 5426 5421 5416 5410 5405 5400 5394 5389 5383 5376 5370 5363
5852 5849 5846 5843 5839 5836 5833 5830 5826 5823 5819 5814 5809 5805 5801 5796 5792 5788 5784 5781 5776 5771 5766 5761 5756 5751 5746 5741 5737 5732 5726 5721 5715 5708 5701 5694 5687 5681 5675 5669 5662 5655 5648 5641 5634 5628 5621 5614 5607 5599 5591 5583 5574 5566 5557 5549 5540 5532 5523 5515 5506 5497 5489 5481 5474 5467 5461 5456 5452 5447 5443 5438 5434 5429 5424 5418 5413 5407 5402 5396 5390 5385 5378 5372 5365 5357
5850 5848 5846 5843 5839 5836 5833 5830 5826 5823 5818 5813 5808 5804 5800 5796 5792 5788 5784 5780 5777 5772 5766 5761 5758 5753 5746 5740 5735 5729 5723 5718 5712 5705 5699 5693 5688 5682 5675 5668 5662 5655 5648 5641 5634 5626 5620 5613 5605 5597 5589 5581 5573 5565 5556 5547 5539 5530 5522 5513 5505 5496 5488 5480 5473 5466 5460 5454 5450 5446 5441 5436 5432 5427 5421 5416 5410 5404 5399 5393 5386 5380 5374 5367 5360 5353
5849 5846 5844 5841 5839 5836 5833 5830 5826 5821 5817 5812 5808 5804 5799 5796 5792 5788 5784 5780 5776 5771 5766 5761 5758 5754 5749 5742 5737 5731 5725 5720 5713 5706 5700 5694 5688 5681 5675 5668 5661 5654 5647 5641 5634 5626 5619 5612 5604 5597 5589 5580 5572 5564 5555 5546 5537 5528 5520 5512 5503 5495 5486 5479 5472 5465 5459 5453 5449 5444 5440 5435 5430 5424 5419 5413 5407 5401 5395 5389 5383 5376 5370 5363 5356 5348
5848 5845 5842 5839 5836 5833 5830 5826 5823 5819 5815 5811 5807 5803 5798 5794 5790 5786 5782 5778 5774 5769 5764 5759 5756 5754 5750 5745 5739 5733 5727 5721 5714 5707 5701 5694 5687 5681 5674 5667 5660 5653 5646 5640 5633 5626 5618 5611 5604 5596 5588 5580 5572 5563 5554 5545 5536 5527 5518 5510 5502 5494 5486 5478 5471 5464 5458 5452 5447 5443 5438 5433 5428 5422 5416 5410 5404 5398 5392 5386 5379 5373 5366 5359 5352 5344
5848 5844 5841 5837 5834 5831 5827 5824 5821 5817 5813 5809 5806 5802 5797 5793 5788 5784 5780 5776 5772 5768 5765 5759 5753 5750 5747 5742 5737 5732 5726 5719 5712 5707 5700 5693 5687 5680 5672 5665 5658 5652 5645 5638 5631 5624 5617 5610 5602 5594 5586 5578 5570 5562 5553 5544 5535 5526 5517 5509 5501 5493 5485 5477 5470 5463 5457 5451 5446 5441 5436 5431 5426 5420 5414 5407 5401 5395 5388 5382 5375 5369 5362 5355 5348 5340
5847 5844 5840 5837 5833 5830 5827 5824 5820 5816 5812 5808 5805 5801 5797 5792 5787 5783 5779 5775 5770 5766 5763 5759 5752 5747 5744 5740 5734 5728 5723 5717 5711 5705 5698 5691 5685 5678 5671 5665 5658 5651 5644 5636 5629 5622 5615 5608 5600 5592 5585 5577 5569 5560 5551 5543 5534 5525 5517 5508 5500 5492 5484 5476 5469 5462 5456 5450 5445 5440 5434 5429 5423 5417 5411 5404 5398 5391 5385 5378 5372 5365 5359 5352 5344 5336
5846 5843 5840 5836 5832 5829 5826 5823 5819 5815 5812 5807 5803 5799 5796 5792 5787 5783 5778 5773 5769 5765 5761 5757 5752 5746 5741 5737 5732 5726 5720 5714 5708 5703 5696 5690 5684 5677 5671 5665 5658 5651 5643 5635 5628 5621 5614 5606 5599 5591 5583 5576 5567 5559 5550 5542 5534 5525 5516 5508 5499 5491 5483 5475 5468 5462 5456 5450 5444 5438 5432 5427 5421 5414 5408 5402 5395 5389 5382 5376 5369 5362 5355 5348 5341 5334
5845 5842 5839 5836 5832 5828 5825 5822 5819 5815 5811 5807 5802 5798 5794 5791 5787 5782 5777 5772 5769 5765 5760 5755 5751 5746 5741 5736 5731 5725 5718 5712 5706 5701 5695 5690 5684 5678 5671 5664 5657 5649 5642 5634 5627 5620 5613 5605 5598 5590 5582 5574 5566 5558 5550 5542 5534 5525 5516 5508 5499 5490 5482 5474 5467 5461 5455 5449 5443 5437 5431 5425 5418 5412 5406 5400 5393 5386 5380 5373 5366 5360 5353 5345 5338 5330
5843 5840 5838 5835 5832 5828 5825 5821 5818 5814 5810 5806 5802 5797 5793 5789 5785 5781 5775 5771 5767 5764 5759 5754 5750 5746 5741 5735 5729 5723 5718 5712 5707 5701 5696 5690 5684 5677 5671 5663 5656 5648 5641 5633 5626 5619 5612 5605 5597 5589 5581 5574 5566 5558 5550 5541 5533 5525 5516 5507 5498 5490 5482 5474 5467 5460 5454 5448 5442 5436 5429 5423 5417 5410 5404 5397 5391 5384 5377 5371 5364 5357 5350 5343 5335 5327
5842 5839 5836 5834 5831 5827 5824 5820 5816 5812 5809 5805 5800 5795 5791 5787 5783 5780 5775 5769 5764 5761 5757 5753 5748 5744 5739 5734 5729 5724 5718 5712 5706 5701 5696 5690 5683 5676 5670 5663 5655 5647 5640 5632 5625 5618 5611 5604 5597 5589 5581 5573 5566 5558 5549 5541 5533 5524 5515 5507 5498 5489 5481 5473 5466 5459 5453 5447 5441 5435 5428 5422 5415 5409 5402 5395 5389 5382 5375 5368 5361 5355 5347 5340 5333 5325
5840 5838 5835 5832 5830 5826 5821 5818 5814 5810 5807 5803 5799 5794 5790 5786 5782 5779 5774 5768 5763 5759 5755 5752 5747 5742 5737 5732 5727 5722 5717 5711 5705 5699 5694 5688 5682 5675 5668 5661 5653 5646 5638 5631 5624 5618 5611 5604 5596 5588 5580 5573 5565 5557 5549 5540 5532 5523 5514 5506 5497 5489 5480 5473 5466 5459 5452 5446 5440 5434 5427 5420 5414 5407 5400 5393 5387 5380 5373 5366 5359 5352 5345 5338 5331 5323
5838 5836 5832 5829 5827 5824 5820 5816 5813 5808 5804 5801 5797 5793 5789 5785 5781 5777 5773 5766 5761 5757 5753 5749 5744 5739 5734 5729 5723 5719 5715 5709 5703 5698 5692 5686 5681 5674 5667 5659 5652 5644 5637 5630 5623 5617 5610 5603 5595 5587 5579 5572 5564 5555 5547 5539 5530 5522 5513 5505 5496 5488 5480 5473 5465 5459 5452 5446 5439 5432 5426 5419 5412 5406 5399 5392 5385 5378 5371 5364 5357 5350 5342 5335 5328 5321
5836 5834 5830 5827 5824 5822 5818 5815 5812 5807 5802 5798 5796 5792 5788 5784 5779 5776 5772 5766 5759 5755 5751 5746 5742 5737 5732 5728 5722 5718 5713 5709 5703 5697 5692 5686 5680 5673 5666 5658 5651 5643 5636 5630 5623 5616 5610 5602 5594 5587 5578 5570 5563 5555 5546 5538 5529 5521 5512 5504 5496 5488 5480 5472 5465 5458 5452 5445 5438 5432 5425 5418 5411 5404 5398 5391 5383 5377 5369 5362 5355 5348 5340 5333 5325 5318
5834 5831 5828 5825 5821 5819 5816 5812 5808 5805 5801 5798 5795 5790 5786 5782 5777 5774 5772 5767 5759 5754 5751 5746 5741 5736 5731 5727 5722 5717 5713 5709 5703 5698 5692 5686 5680 5673 5665 5658 5650 5642 5636 5629 5622 5615 5609 5601 5593 5585 5577 5569 5562 5554 5546 5537 5529 5520 5512 5504 5496 5488 5480 5472 5465 5458 5451 5444 5437 5431 5424 5418 5411 5403 5397 5390 5382 5375 5368 5361 5354 5347 5340 5332 5324 5316
5832 5829 5825 5822 5818 5815 5813 5810 5806 5803 5799 5796 5792 5787 5783 5779 5775 5771 5769 5765 5759 5753 5749 5744 5739 5734 5730 5726 5721 5716 5712 5708 5703 5697 5692 5685 5679 5672 5665 5658 5650 5642 5635 5628 5622 5614 5607 5600 5592 5584 5576 5568 5560 5552 5545 5537 5529 5521 5513 5504 5496 5487 5479 5472 5464 5457 5450 5443 5437 5430 5423 5417 5410 5403 5395 5388 5381 5374 5367 5360 5353 5346 5339 5331 5323 5315
5829 5826 5822 5819 5816 5812 5809 5806 5803 5799 5795 5791 5788 5784 5780 5776 5772 5767 5764 5761 5756 5751 5746 5741 5736 5732 5728 5724 5720 5715 5711 5706 5701 5695 5689 5684 5678 5671 5665 5657 5649 5641 5634 5627 5620 5613 5605 5598 5591 5583 5575 5567 5559 5551 5544 5537 5529 5521 5513 5504 5496 5487 5479 5471 5464 5456 5449 5443 5436 5429 5422 5415 5409 5402 5394 5387 5380 5373 5366 5359 5351 5344 5337 5329 5322 5314
5826 5824 5820 5817 5813 5809 5806 5803 5799 5794 5790 5787 5784 5781 5777 5772 5768 5764 5760 5757 5752 5748 5743 5739 5735 5730 5726 5722 5718 5713 5708 5703 5699 5693 5687 5682 5676 5670 5663 5655 5648 5640 5633 5625 5618 5611 5604 5597 5590 5582 5574 5566 5558 5551 5544 5536 5529 5521 5513 5504 5496 5487 5479 5471 5463 5456 5449 5441 5434 5427 5421 5414 5408 5401 5393 5386 5378 5372 5365 5358 5350 5342 5335 5327 5320 5312
5824 5821 5818 5815 5811 5807 5803 5801 5798 5793 5787 5784 5781 5777 5774 5769 5764 5760 5756 5752 5748 5744 5740 5736 5732 5728 5724 5720 5716 5710 5705 5700 5695 5690 5685 5679 5674 5667 5660 5653 5645 5638 5631 5624 5617 5610 5602 5595 5588 5581 5573 5565 5558 5550 5543 5535 5528 5520 5512 5504 5496 5487 5479 5471 5462 5455 5447 5440 5432 5425 5418 5412 5405 5399 5392 5385 5378 5370 5363 5356 5349 5341 5334 5326 5319 5311
5822 5819 5816 5812 5809 5805 5801 5798 5797 5792 5786 5782 5778 5774 5770 5766 5762 5757 5753 5749 5745 5741 5738 5734 5730 5726 5722 5718 5713 5708 5703 5697 5692 5687 5682 5676 5670 5664 5658 5650 5643 5636 5629 5623 5616 5608 5601 5594 5587 5580 5573 5565 5557 5550 5542 5534 5527 5519 5511 5504 5495 5487 5479 5471 5462 5454 5446 5438 5431 5423 5416 5410 5403 5396 5390 5383 5376 5369 5362 5355 5348 5341 5333 5326 5318 5310
5818 5815 5813 5809 5806 5802 5798 5795 5792 5789 5785 5780 5776 5772 5767 5763 5759 5755 5751 5747 5743 5740 5737 5733 5728 5724 5720 5716 5711 5706 5701 5696 5691 5685 5680 5674 5668 5662 5656 5649 5642 5634 5627 5621 5614 5608 5601 5593 5586 5579 5572 5564 5557 5549 5542 5534 5526 5518 5510 5503 5495 5487 5479 5470 5462 5454 5446 5438 5430 5423 5415 5409 5402 5395 5389 5382 5375 5369 5362 5355 5347 5340 5333 5325 5318 5310
5814 5810 5808 5806 5802 5799 5796 5792 5787 5783 5780 5778 5773 5768 5765 5760 5756 5753 5750 5746 5742 5738 5734 5731 5726 5722 5718 5714 5709 5704 5699 5694 5688 5683 5678 5673 5667 5660 5654 5647 5641 5634 5626 5620 5613 5607 5600 5593 5586 5579 5571 5564 5556 5548 5541 5534 5526 5518 5510 5502 5494 5486 5478 5470 5462 5454 5446 5438 5430 5423 5415 5408 5402 5395 5388 5382 5375 5369 5362 5355 5348 5340 5333 5326 5318 5310
5813 5808 5804 5802 5799 5795 5792 5789 5784 5779 5776 5774 5771 5766 5762 5758 5754 5751 5748 5744 5740 5736 5732 5728 5724 5720 5716 5712 5707 5702 5697 5692 5687 5681 5676 5670 5665 5659 5652 5646 5639 5633 5626 5618 5612 5605 5599 5592 5585 5578 5571 5563 5555 5548 5540 5533 5526 5518 5510 5502 5494 5486 5477 5469 5461 5453 5445 5438 5430 5423 5415 5408 5401 5394 5388 5381 5375 5369 5362 5355 5348 5341 5334 5326 5318 5310
5811 5806 5802 5800 5797 5793 5789 5786 5782 5778 5773 5770 5768 5765 5760 5756 5751 5747 5743 5740 5736 5733 5729 5725 5722 5718 5713 5709 5705 5700 5695 5690 5685 5679 5674 5668 5663 5657 5651 5644 5637 5630 5624 5617 5610 5604 5597 5591 5584 5577 5570 5562 5554 5547 5540 5532 5525 5517 5510 5502 5494 5486 5478 5470 5462 5454 5446 5438 5430 5423 5415 5408 5401 5393 5387 5380 5374 5368 5362 5354 5347 5340 5333 5326 5318 5310
5807 5803 5799 5796 5794 5792 5789 5784 5778 5776 5773 5769 5764 5761 5757 5753 5749 5744 5740 5737 5733 5730 5727 5722 5719 5715 5710 5706 5702 5698 5693 5688 5683 5678 5672 5667 5661 5655 5649 5642 5636 5629 5622 5615 5609 5602 5596 5589 5583 5576 5569 5561 5553 5546 5539 5532 5524 5517 5510 5502 5494 5486 5478 5470 5462 5454 5446 5438 5431 5423 5416 5408 5400 5392 5385 5379 5372 5366 5360 5353 5345 5338 5331 5324 5317 5308
5803 5800 5796 5792 5789 5788 5786 5782 5776 5772 5770 5767 5762 5757 5753 5750 5746 5742 5738 5734 5731 5727 5724 5719 5716 5712 5708 5704 5700 5696 5691 5686 5681 5676 5670 5665 5659 5653 5648 5641 5634 5628 5621 5614 5607 5601 5594 5588 5581 5574 5567 5560 5552 5545 5538 5531 5523 5516 5509 5502 5495 5487 5478 5470 5463 5455 5447 5439 5432 5424 5417 5409 5401 5393 5385 5378 5371 5364 5358 5352 5344 5337 5330 5323 5316 5308
5797 5795 5791 5787 5785 5783 5780 5778 5774 5769 5766 5762 5758 5754 5751 5747 5743 5739 5735 5731 5728 5724 5720 5717 5713 5709 5705 5701 5697 5693 5688 5683 5678 5674 5668 5663 5657 5652 5646 5640 5633 5626 5620 5613 5606 5599 5593 5586 5580 5573 5566 5559 5551 5544 5537 5530 5523 5516 5509 5502 5494 5487 5478 5471 5463 5456 5448 5440 5433 5426 5418 5410 5403 5395 5387 5378 5369 5362 5356 5351 5344 5336 5327 5320 5312 5304
5791 5790 5785 5781 5779 5778 5775 5772 5769 5767 5765 5761 5755 5751 5748 5744 5740 5736 5732 5728 5725 5722 5718 5714 5710 5706 5703 5699 5695 5691 5686 5681 5676 5671 5666 5661 5655 5650 5644 5638 5631 5625 5618 5611 5605 5598 5591 5585 5579 5572 5565 5558 5550 5543 5536 5529 5522 5515 5508 5501 5494 5486 5478 5471 5463 5456 5449 5441 5434 5426 5419 5412 5405 5397 5389 5381 5372 5361 5351 5344 5339 5332 5325 5316 5306 5298
5787 5785 5781 5776 5773 5771 5770 5766 5762 5759 5759 5758 5752 5747 5744 5741 5737 5733 5729 5725 5722 5719 5715 5712 5708 5704 5700 5696 5692 5688 5684 5679 5674 5669 5664 5658 5653 5647 5642 5636 5629 5623 5617 5610 5603 5596 5590 5584 5577 5570 5563 5556 5549 5542 5535 5528 5521 5514 5508 5501 5493 5486 5478 5471 5463 5456 5449 5442 5435 5427 5420 5413 5406 5399 5391 5384 5376 5367 5356 5344 5334 5327 5321 5314 5305 5295
5783 5781 5777 5772 5767 5765 5764 5762 5756 5753 5752 5751 5747 5743 5740 5737 5733 5730 5726 5723 5719 5716 5713 5709 5706 5702 5698 5694 5690 5686 5682 5677 5672 5667 5662 5656 5651 5645 5639 5633 5627 5621 5615 5608 5601 5594 5588 5582 5575 5569 5562 5554 5547 5541 5534 5527 5520 5514 5507 5500 5493 5486 5478 5471 5463 5456 5449 5442 5435 5428 5421 5414 5407 5400 5393 5385 5377 5371 5363 5352 5339 5328 5319 5312 5305 5297